Temp
18 18 18 18 17 18 18 18 18 18 17 17 17 18 17 17 16 16 16 16 16 16 16 16 17 17 17 17 18 18 17 17 17 18 18 18 17 17 17 17 17 17 17
19 18 18 18 18 18 18 18 18 17 17 17 17 17 17 17 17 16 16 16 16 16 16 17 17 17 17 17 18 17 17 17 18 18 18 17 17 18 17 17 17 17 16
19 18 18 18 18 18 18 18 17 17 17 17 17 18 18 17 17 17 16 17 16 17 16 16 17 17 17 17 17 17 17 17 18 18 18 18 17 17 17 17 17 17 17
19 19 18 18 18 18 18 18 17 17 17 17 18 18 17 18 17 17 18 17 17 17 17 17 17 18 17 17 17 18 18 17 18 18 18 18 18 18 17 17 17 17 17
19 19 19 19 18 18 18 18 17 17 17 17 18 17 17 17 18 16 16 17 18 18 17 17 17 17 17 17 17 17 17 17 17 18 18 18 18 18 18 18 17 17 17
20 20 19 19 19 19 18 18 18 17 18 17 18 18 17 17 17 17 18 18 18 18 17 18 18 18 17 18 17 17 17 17 18 18 18 18 18 18 18 17 17 17 17
20 20 20 19 19 19 18 18 18 18 17 18 18 18 18 18 18 18 18 18 19 19 18 18 18 18 18 18 18 18 17 17 18 18 18 18 18 18 18 17 18 18 17
21 20 20 20 19 19 19 19 18 18 18 18 18 18 18 18 18 19 19 19 19 19 19 19 19 18 18 18 18 18 17 18 18 18 18 18 19 19 18 17 18 18 17
21 21 20 19 19 19 19 19 19 18 18 18 18 18 18 19 18 19 19 19 19 19 19 19 19 18 18 18 18 17 17 17 18 17 18 19 19 19 18 18 18 18 18
21 20 20 20 19 19 19 19 19 19 19 18 18 19 18 19 19 19 19 19 19 19 19 19 19 19 19 19 18 18 18 18 18 17 18 19 20 20 19 19 18 18 18
20 20 20 20 20 19 19 19 19 19 19 19 19 19 19 18 19 19 19 19 19 19 19 19 19 19 19 19 19 18 18 18 17 18 18 18 20 20 20 20 19 18 18
20 20 20 20 19 20 19 19 19 19 19 19 18 19 19 19 19 19 19 19 19 19 19 19 19 19 19 19 19 19 19 18 18 18 19 18 19 20 20 20 20 19 18
21 20 20 20 19 19 19 19 19 18 18 18 18 18 18 19 18 18 19 19 19 19 19 19 19 20 19 19 19 19 19 19 19 19 19 18 19 20 20 20 21 20 19
21 20 20 20 20 19 19 18 18 18 18 18 18 18 18 18 18 18 18 18 18 19 19 19 19 19 19 19 19 19 19 20 20 19 19 19 19 19 20 20 20 20 20
21 20 20 20 20 20 19 19 19 19 18 18 19 18 18 18 18 18 18 18 18 18 19 19 19 19 19 19 19 19 20 19 20 20 20 20 19 19 19 19 19 19 19
21 21 21 20 20 19 19 19 19 18 18 18 19 18 18 18 18 18 19 18 19 19 19 19 19 19 19 19 19 19 19 20 20 20 20 19 20 19 18 18 18 18 18
22 22 22 21 20 20 20 19 19 19 18 18 19 19 19 19 19 19 19 19 19 19 19 19 19 19 19 19 19 20 20 20 20 19 19 19 19 18 18 18 18 18 18
23 22 22 21 21 20 20 20 19 19 19 19 19 19 19 19 19 19 19 19 18 18 18 18 18 18 19 19 19 20 20 19 19 19 19 19 19 18 18 18 17 17 17
23 22 22 21 21 21 20 20 20 20 20 19 19 19 19 19 19 19 19 19 19 19 19 19 19 19 19 19 20 20 20 19 19 19 19 19 19 19 18 18 17 17 17
23 23 22 21 21 21 20 20 20 20 20 20 20 20 19 19 20 19 19 20 19 19 19 19 19 19 19 19 20 19 19 20 20 20 20 19 19 20 19 19 19 19 18
23 23 22 21 21 21 20 20 20 20 20 20 20 20 20 20 19 19 20 19 19 19 19 19 19 19 19 19 19 20 20 20 19 20 20 20 19 19 20 20 20 19 18
23 23 22 22 21 21 21 20 20 20 20 20 20 19 19 19 19 19 19 19 19 18 19 19 19 19 19 19 19 20 20 19 19 19 19 19 19 19 20 20 20 19 19
23 22 22 22 21 21 21 21 20 20 20 20 20 19 20 20 19 19 19 19 19 19 19 19 19 19 19 19 19 19 19 19 20 20 19 19 19 20 20 20 19 19 19
23 23 23 22 21 21 21 21 20 20 21 21 21 20 20 20 19 19 19 18 19 18 18 19 19 19 19 19 19 19 19 19 19 20 20 19 19 19 20 20 19 19 19
23 23 23 22 21 21 21 21 20 20 20 20 20 20 20 20 19 18 18 18 18 18 18 18 18 19 18 18 19 19 18 18 18 18 19 19 19 20 20 20 20 19 19
24 23 22 21 21 21 21 21 21 20 20 20 20 20 20 19 18 18 18 18 18 18 17 17 17 18 18 18 18 18 17 17 17 17 17 18 18 20 19 20 20 19 18
Height
1533 1533 1533 1533 1533 1532 1532 1531 1531 1531 1530 1530 1531 1532 1531 1530 1528 1526 1528 1530 1533 1534 1538 1540 1541 1543 1545 1547 1548 1549 1549 1550 1550 1550 1551 1552 1552 1552 1553 1553 1553 1553 1553
1533 1534 1535 1535 1535 1534 1534 1534 1534 1533 1533 1533 1534 1535 1534 1534 1533 1531 1531 1531 1532 1535 1540 1543 1544 1547 1548 1549 1550 1551 1551 1552 1552 1553 1553 1553 1554 1554 1555 1555 1555 1554 1555
1533 1535 1537 1536 1536 1536 1537 1536 1536 1536 1536 1536 1537 1537 1537 1537 1536 1535 1535 1536 1533 1541 1543 1545 1547 1549 1550 1551 1552 1553 1554 1555 1556 1557 1557 1556 1556 1557 1557 1557 1557 1557 1557
1534 1535 1536 1537 1538 1539 1539 1539 1538 1538 1537 1538 1539 1539 1540 1541 1541 1540 1540 1541 1543 1544 1547 1549 1550 1551 1552 1554 1555 1556 1557 1558 1559 1559 1560 1559 1558 1559 1560 1560 1560 1560 1559
1535 1536 1537 1539 1540 1540 1541 1541 1541 1541 1540 1541 1541 1542 1544 1544 1544 1543 1541 1542 1546 1548 1551 1552 1553 1554 1556 1557 1559 1559 1560 1561 1561 1562 1562 1562 1562 1562 1563 1563 1562 1562 1562
1537 1538 1539 1540 1541 1542 1543 1544 1544 1544 1544 1545 1545 1545 1546 1548 1548 1548 1547 1549 1551 1552 1554 1555 1556 1558 1559 1560 1561 1562 1562 1563 1563 1564 1565 1566 1565 1566 1566 1565 1564 1564 1564
1536 1539 1540 1541 1543 1544 1545 1545 1545 1545 1545 1546 1547 1548 1549 1550 1551 1551 1552 1553 1555 1555 1556 1557 1559 1560 1562 1563 1563 1564 1564 1565 1566 1567 1568 1569 1568 1568 1569 1568 1567 1566 1566
1537 1539 1542 1543 1544 1545 1546 1546 1547 1547 1548 1548 1549 1551 1551 1553 1553 1554 1555 1556 1557 1558 1560 1561 1561 1562 1564 1565 1566 1566 1566 1567 1567 1568 1570 1571 1570 1571 1571 1570 1569 1569 1568
1539 1541 1543 1544 1545 1546 1547 1548 1548 1549 1550 1551 1552 1553 1553 1554 1556 1556 1557 1559 1559 1561 1562 1563 1565 1566 1566 1567 1567 1569 1570 1569 1570 1570 1572 1572 1572 1573 1573 1572 1572 1572 1572
1541 1543 1544 1546 1547 1548 1548 1549 1550 1551 1552 1553 1554 1555 1555 1557 1558 1559 1560 1560 1561 1563 1564 1566 1567 1568 1567 1568 1569 1570 1571 1571 1572 1573 1573 1573 1573 1573 1574 1573 1572 1573 1573
1544 1545 1546 1547 1548 1549 1550 1550 1552 1553 1554 1555 1555 1556 1557 1558 1559 1561 1562 1563 1564 1565 1566 1567 1567 1569 1569 1569 1570 1571 1571 1571 1572 1573 1573 1574 1573 1574 1574 1574 1573 1573 1573
1544 1546 1548 1548 1547 1548 1549 1550 1552 1554 1555 1557 1557 1558 1559 1559 1560 1563 1564 1565 1566 1567 1567 1568 1569 1569 1569 1570 1571 1571 1572 1572 1572 1573 1574 1574 1574 1574 1574 1574 1573 1573 1573
1544 1547 1549 1548 1548 1548 1550 1551 1552 1555 1556 1558 1558 1560 1560 1561 1561 1563 1564 1565 1566 1567 1567 1567 1568 1569 1571 1571 1571 1571 1572 1573 1573 1572 1572 1573 1573 1574 1574 1574 1574 1573 1573
1544 1547 1549 1548 1549 1550 1552 1553 1553 1555 1557 1558 1559 1559 1560 1561 1561 1563 1565 1566 1566 1566 1567 1568 1567 1568 1570 1570 1571 1571 1571 1571 1570 1571 1571 1572 1572 1572 1572 1573 1572 1572 1572
1543 1547 1549 1548 1550 1551 1552 1553 1554 1556 1557 1558 1559 1559 1560 1561 1562 1562 1564 1565 1566 1566 1567 1567 1568 1568 1568 1569 1569 1568 1568 1569 1569 1569 1570 1570 1570 1571 1570 1571 1571 1571 1572
1543 1546 1548 1549 1551 1552 1553 1554 1554 1555 1556 1558 1559 1560 1560 1560 1561 1561 1562 1563 1564 1564 1566 1565 1566 1565 1565 1566 1565 1565 1566 1566 1566 1567 1568 1568 1568 1568 1568 1568 1568 1569 1570
1542 1545 1548 1550 1551 1552 1553 1553 1553 1554 1555 1557 1559 1559 1560 1560 1560 1561 1561 1562 1563 1563 1564 1565 1564 1563 1564 1563 1563 1564 1564 1563 1564 1564 1566 1566 1565 1564 1564 1565 1565 1566 1567
1541 1544 1547 1549 1550 1552 1552 1552 1553 1552 1554 1555 1557 1558 1559 1559 1560 1560 1560 1560 1561 1561 1562 1561 1560 1561 1562 1562 1560 1560 1560 1560 1561 1561 1561 1560 1560 1561 1561 1562 1565 1567 1565
1540 1543 1546 1548 1549 1551 1554 1555 1554 1554 1555 1556 1556 1557 1558 1558 1558 1558 1559 1559 1561 1561 1560 1560 1560 1560 1560 1559 1558 1557 1557 1558 1559 1559 1558 1555 1556 1555 1557 1559 1561 1557 1561
1540 1543 1545 1547 1549 1550 1552 1553 1554 1556 1556 1556 1555 1556 1557 1557 1557 1558 1558 1558 1559 1559 1559 1558 1558 1558 1558 1557 1557 1556 1556 1556 1554 1554 1555 1555 1553 1553 1552 1554 1555 1554 1553
1539 1541 1542 1545 1547 1549 1551 1554 1555 1555 1555 1554 1553 1553 1554 1554 1555 1556 1556 1556 1556 1556 1556 1555 1555 1556 1557 1557 1556 1556 1554 1552 1551 1551 1550 1550 1550 1550 1550 1552 1550 1548 1548
1534 1537 1540 1543 1544 1547 1549 1553 1554 1553 1553 1552 1552 1553 1554 1554 1554 1555 1553 1554 1554 1555 1555 1555 1554 1554 1554 1555 1555 1553 1552 1551 1549 1549 1549 1547 1548 1549 1550 1550 1547 1547 1545
1531 1535 1538 1540 1543 1545 1549 1550 1551 1551 1550 1550 1551 1553 1553 1553 1553 1553 1552 1552 1551 1552 1552 1553 1553 1553 1552 1552 1552 1552 1551 1551 1550 1549 1548 1548 1549 1548 1549 1548 1546 1543 1539
1529 1533 1535 1539 1541 1545 1547 1548 1548 1548 1549 1550 1551 1552 1551 1551 1551 1551 1551 1550 1550 1550 1549 1550 1550 1550 1550 1551 1551 1550 1550 1550 1550 1549 1548 1548 1548 1547 1546 1544 1543 1541 1536
1528 1530 1533 1536 1539 1542 1545 1547 1549 1548 1548 1549 1550 1550 1550 1549 1549 1548 1548 1548 1548 1548 1548 1548 1548 1548 1549 1549 1549 1549 1549 1548 1548 1548 1546 1547 1546 1545 1544 1542 1541 1539 1537
1526 1528 1530 1533 1536 1538 1540 1544 1546 1548 1547 1548 1548 1550 1548 1547 1547 1546 1546 1546 1545 1546 1546 1546 1546 1546 1546 1547 1547 1547 1547 1546 1546 1546 1544 1543 1544 1544 1543 1540 1538 1538 1539
Wind_Speed
15 15 15 15 17 19 20 20 19 18 19 22 23 24 23 24 22 20 21 23 25 23 25 25 24 24 17 14 14 12 11 11 12 13 14 14 15 14 11 10 10 10 9
19 17 17 17 18 20 20 20 19 18 19 20 21 20 22 26 28 27 23 17 24 27 22 21 23 24 14 15 13 13 13 14 15 17 17 18 15 15 14 13 13 12 10
20 20 18 18 19 19 19 19 18 17 19 20 20 22 24 27 31 33 29 28 30 25 22 20 19 17 18 20 17 17 18 18 17 15 16 15 15 14 13 13 13 13 13
21 21 20 19 19 19 18 18 18 19 20 20 23 23 22 25 26 28 30 29 27 25 21 20 22 23 24 22 22 23 22 20 16 14 14 15 16 13 13 14 14 13 12
21 20 20 18 19 19 19 18 20 21 22 24 25 24 21 21 23 23 26 29 25 23 21 21 23 24 23 24 23 20 20 17 14 12 10 12 13 14 12 13 14 13 13
20 20 19 18 18 18 18 19 19 21 21 23 24 23 22 20 19 21 24 24 20 21 20 20 21 22 21 19 18 18 17 13 9 9 6 8 11 12 10 11 12 12 12
21 19 18 17 17 18 18 19 18 20 20 21 22 22 22 21 20 21 20 21 20 18 19 18 18 20 19 18 17 17 14 11 7 7 4 5 8 8 8 10 11 11 11
20 18 17 17 17 17 18 18 18 19 20 20 20 20 19 20 19 19 18 18 18 17 17 18 19 22 20 19 15 12 11 8 8 5 4 4 6 6 7 9 9 10 9
17 16 17 17 17 16 17 17 18 18 18 19 19 18 17 17 17 17 17 16 15 14 15 15 17 17 17 16 13 11 7 11 8 6 2 4 4 2 6 8 9 8 8
17 16 17 15 15 15 15 15 16 17 17 17 18 17 16 16 15 15 15 14 13 14 15 15 15 15 14 14 16 9 6 10 9 9 1 1 4 1 4 6 8 7 7
18 16 16 16 12 14 14 15 15 16 17 16 17 17 15 14 13 12 9 8 10 11 12 11 11 11 12 13 15 15 13 6 10 8 7 5 2 3 3 3 7 7 7
18 17 16 14 13 14 15 16 16 15 15 16 17 16 14 14 12 7 7 7 7 7 7 9 9 10 11 12 12 13 10 10 11 8 7 10 7 6 5 4 4 7 7
14 16 14 12 14 13 16 17 17 15 15 14 13 12 11 11 7 8 5 6 6 6 7 8 9 9 8 7 7 7 6 8 10 10 14 13 13 9 8 6 5 7 9
15 15 13 12 13 14 12 14 14 15 14 11 10 8 6 7 6 6 5 5 4 4 7 7 9 10 8 6 5 7 6 6 7 11 15 14 16 10 7 8 8 8 9
17 17 13 10 9 7 4 12 14 12 14 12 12 8 8 7 7 7 7 7 6 7 7 10 9 10 9 7 9 8 11 12 14 14 11 12 19 15 9 10 10 11 10
19 19 12 10 9 8 4 5 10 8 12 14 13 11 11 11 10 7 7 8 10 7 7 6 10 10 9 10 8 9 12 15 17 15 14 10 13 18 13 11 10 12 14
20 18 12 12 10 7 6 6 6 13 13 14 13 12 14 13 15 12 9 9 10 8 9 9 10 8 11 11 13 15 16 17 14 16 15 13 14 18 17 15 13 11 12
19 21 16 14 12 11 8 5 3 11 13 13 11 9 9 11 9 11 11 9 10 9 8 9 7 13 14 13 14 17 18 15 14 16 16 16 13 19 22 17 16 17 16
20 21 16 16 11 10 10 7 10 10 12 11 10 8 7 7 8 10 8 7 8 9 7 6 8 8 6 8 9 11 15 16 13 14 15 15 15 17 20 22 20 20 20
23 20 16 17 14 10 9 6 10 11 12 10 7 4 4 5 8 8 6 7 7 7 8 8 9 9 10 8 9 12 13 14 14 12 15 16 18 16 15 20 20 19 22
26 18 17 19 18 15 11 10 10 12 11 9 10 6 2 3 5 6 9 8 9 9 11 11 11 11 10 11 11 11 11 12 11 9 10 10 15 6 6 14 26 18 19
30 22 23 21 20 17 11 10 8 9 12 11 10 10 7 8 8 9 10 10 12 14 10 12 11 10 10 11 9 9 6 5 3 1 6 4 3 4 6 8 9 13 20
29 27 21 25 20 16 15 12 10 7 12 14 13 11 5 6 8 9 8 8 10 9 11 12 11 11 10 8 6 4 3 2 8 4 7 7 4 5 2 9 4 7 8
29 25 18 26 21 21 17 17 14 12 10 11 10 7 5 9 7 5 4 5 5 8 8 7 7 8 7 6 4 2 3 6 2 4 3 4 7 9 10 4 4 4 5
30 27 20 23 20 16 17 19 16 15 12 11 10 9 8 8 5 5 8 10 11 11 7 6 5 4 5 4 4 5 5 4 2 3 6 5 3 5 11 4 1 3 3
30 26 23 25 20 15 21 23 18 16 13 12 12 9 6 5 6 9 8 8 6 4 4 5 5 8 7 7 6 4 4 3 6 5 7 8 7 5 11 5 5 5 2
Wind_Direction
132 119 120 109 105 104 99 100 99 103 109 125 122 98 90 94 88 121 142 144 141 137 141 143 140 140 134 144 146 129 126 125 121 120 124 124 118 111 118 125 120 126 130
132 126 129 118 112 106 102 97 95 103 110 124 128 106 95 99 93 109 111 134 147 139 137 145 144 145 143 149 146 129 124 125 120 125 125 117 109 103 103 109 103 105 113
133 132 130 125 115 108 105 99 95 103 116 120 122 116 104 100 101 96 95 108 124 140 134 135 142 143 130 122 118 121 119 117 117 120 120 117 109 102 104 102 107 103 104
132 132 126 124 117 113 107 103 100 105 116 118 120 120 113 105 106 107 104 98 112 123 125 123 125 122 119 120 124 122 119 112 101 112 117 113 109 113 107 106 108 103 98
132 131 130 127 124 117 111 105 105 107 112 114 120 117 117 115 112 117 115 108 115 121 117 121 126 122 123 125 123 118 110 108 92 102 108 111 118 110 109 108 105 104 95
132 131 130 131 128 125 118 116 109 110 115 119 120 120 119 118 117 116 112 117 119 118 122 124 128 132 131 127 120 118 119 115 112 97 96 124 120 112 122 108 106 101 95
134 131 132 133 133 132 129 122 120 117 119 122 125 124 124 121 121 121 124 124 123 125 127 128 132 132 132 123 122 126 122 129 125 105 100 144 122 122 126 118 111 104 101
132 135 138 138 139 135 132 133 126 125 125 124 127 128 127 128 129 127 127 125 128 131 127 133 137 136 136 133 133 128 129 149 141 125 125 136 117 127 142 128 115 112 113
123 134 137 142 141 138 135 132 133 132 130 131 130 130 130 133 132 130 127 128 126 124 125 128 141 148 148 146 151 141 153 170 169 160 72 140 104 128 146 135 127 124 124
123 134 131 132 134 140 141 136 136 138 139 137 135 135 133 130 136 138 137 131 133 136 132 136 139 149 153 157 161 157 150 187 175 203 226 270 133 146 166 148 139 139 137
132 132 128 124 120 132 140 144 141 138 142 146 143 142 142 143 134 133 140 141 135 131 141 140 137 145 151 157 174 167 168 175 192 221 259 257 224 195 217 183 157 160 156
146 139 125 120 130 134 138 140 143 143 140 145 143 137 135 129 128 135 139 152 159 163 158 159 157 162 155 157 160 164 169 193 215 236 261 252 260 227 229 226 202 179 175
155 147 129 122 122 148 144 142 138 140 144 142 149 152 143 145 139 138 123 157 164 185 180 190 185 179 177 174 195 203 203 194 221 259 263 268 251 242 233 244 241 211 193
171 156 142 138 132 147 154 166 156 156 154 161 155 150 169 166 171 168 159 160 170 143 175 175 166 170 187 202 212 236 232 238 248 247 263 248 243 252 240 246 256 237 219
167 162 148 155 148 160 143 171 172 171 173 172 175 175 192 193 195 195 209 210 228 234 209 188 191 191 208 230 245 272 245 256 254 260 266 273 252 245 241 243 249 244 236
170 165 158 159 167 159 138 164 193 199 201 186 179 196 208 220 219 218 205 203 216 239 211 221 228 215 222 234 254 256 256 249 255 248 253 258 249 239 247 247 252 249 239
178 181 169 160 170 149 163 150 156 178 191 199 192 202 214 216 220 230 239 234 230 256 247 246 234 235 258 266 263 250 249 250 250 262 258 261 252 240 249 249 254 258 247
179 188 170 149 148 135 129 146 164 167 181 187 190 199 212 215 217 217 244 234 238 239 242 259 270 256 261 264 255 248 251 257 258 256 267 252 238 242 246 255 255 268 263
192 184 176 167 160 149 147 139 147 147 146 143 143 139 146 178 183 193 196 192 197 216 221 252 252 253 280 288 255 242 245 265 261 253 264 270 252 247 240 249 255 254 259
189 186 182 179 173 162 154 153 153 149 152 153 131 140 150 162 186 191 219 234 216 209 225 256 271 284 289 277 257 265 266 280 280 269 246 252 253 276 255 259 260 266 266
176 191 188 181 184 175 178 169 158 162 173 173 178 197 205 222 231 236 224 267 250 263 259 255 266 277 279 285 279 275 282 283 283 308 291 281 251 249 295 281 260 263 241
196 196 196 190 187 187 183 173 175 178 196 186 195 204 231 246 236 234 243 250 258 258 253 264 269 264 275 264 270 280 288 293 294 356 342 314 229 258 305 346 297 262 266
201 194 201 201 205 206 203 195 192 176 198 212 202 219 271 206 209 233 225 250 234 242 253 260 253 256 253 258 264 278 309 339 343 32 60 47 29 30 320 319 306 273 353
202 196 206 202 198 200 206 204 202 205 212 200 210 208 247 221 225 234 244 256 257 247 267 269 263 248 233 217 228 225 295 314 7 329 327 18 4 351 353 329 322 293 311
201 198 208 197 204 210 216 203 196 209 218 217 213 235 240 239 252 270 268 270 273 263 263 245 227 220 193 209 232 255 281 290 287 301 304 5 27 31 12 6 161 145 251
205 204 205 201 206 220 203 200 204 200 210 215 217 232 242 247 251 259 272 284 263 269 243 238 228 224 218 234 245 269 285 270 275 280 287 307 326 328 5 339 208 228 258